Change the Weather History Date:

Wednesday, May 1, 2013

  Actual Average Record
Temperature  
Mean Temperature 76 °F -  
Max Temperature 95 °F 83 °F 102 °F (2002)
Min Temperature 55 °F 52 °F 37 °F (1970)
Cooling Degree Days 12    
Growing Degree Days 26 (Base 50)    
Moisture  
Dew Point 39 °F    
Average Humidity 33    
Maximum Humidity 70    
Minimum Humidity 7    
Precipitation  
Precipitation 0.00 in - - ()
Sea Level Pressure  
Sea Level Pressure 29.74 in    
Wind  
Wind Speed 10 mph (ENE)    
Max Wind Speed 32 mph    
Max Gust Speed 41 mph    
Visibility 9 miles    
Events      
Averages and records for this station are not official NWS values.
T = Trace of Precipitation, MM = Missing Value Source: NWS Daily Summary

Daily Weather History Graph

Daily Weather History Graph

Search for Another Location

Airport or City:

Trip Planner

Search our weather history database for the weather conditions in past years. The results will help you decide how hot, cold, wet, or windy it might be!

Date:

Astronomy

May. 01, 2013 Rise Set
Actual Time 7:06 AM CDT 8:33 PM CDT
Civil Twilight 6:41 AM CDT 8:59 PM CDT
Nautical Twilight 6:10 AM CDT 9:30 PM CDT
Astronomical Twilight 5:37 AM CDT 10:02 PM CDT
Moon 1:43 AM CDT (5/1) 12:47 PM CDT (5/1)
Length of Visible Light 14h 18m
Length of Day
13h 26m
Waning Gibbous, 59% of the Moon is Illuminated
May 1
Waning Gibbous
May 2
Last Quarter
May 9
New
May 17
First Quarter
May 24
Full

Hourly Weather History & Observations

Time (CDT) Temp. Dew Point Humidity Pressure Visibility Wind Dir Wind Speed Gust Speed Precip Events Conditions
12:53 AM 75.0 °F 45.0 °F 34% 29.57 in 10.0 mi SSE 4.6 mph - N/A   Clear
1:53 AM 68.0 °F 45.0 °F 43% 29.58 in 10.0 mi SE 9.2 mph - N/A   Clear
2:53 AM 69.1 °F 48.0 °F 47% 29.59 in 10.0 mi East 8.1 mph - N/A   Clear
3:53 AM 69.1 °F 46.0 °F 44% 29.60 in 10.0 mi ESE 9.2 mph - N/A   Clear
4:53 AM 68.0 °F 46.9 °F 47% 29.60 in 10.0 mi SE 10.4 mph - N/A   Clear
5:53 AM 64.4 °F 50.0 °F 59% 29.76 in 10.0 mi SE 8.1 mph - N/A   Clear
6:53 AM 61.0 °F 51.1 °F 70% 29.66 in 10.0 mi South 5.8 mph - N/A   Clear
7:53 AM 60.8 °F 50.0 °F 68% 29.83 in 10.0 mi Calm Calm - N/A   Clear
8:53 AM 68.0 °F 52.0 °F 56% 29.73 in 10.0 mi ESE 3.5 mph - N/A   Clear
9:53 AM 73.4 °F 50.0 °F 44% 29.85 in 10.0 mi Calm Calm - N/A   Clear
10:53 AM 82.9 °F 42.1 °F 24% 29.73 in 10.0 mi WNW 9.2 mph - N/A   Clear
11:53 AM 89.1 °F 34.0 °F 14% 29.72 in 10.0 mi North 12.7 mph - N/A   Clear
12:53 PM 93.0 °F 19.0 °F 7% 29.71 in 10.0 mi NNE 11.5 mph 18.4 mph N/A   Clear
1:53 PM 93.9 °F 21.9 °F 7% 29.72 in 10.0 mi NE 16.1 mph 27.6 mph N/A   Clear
2:53 PM 93.0 °F 27.0 °F 9% 29.72 in 10.0 mi ENE 10.4 mph 26.5 mph N/A   Clear
3:53 PM 93.9 °F 26.1 °F 9% 29.72 in 10.0 mi NNE 17.3 mph 23.0 mph N/A   Clear
4:53 PM 91.9 °F 28.0 °F 10% 29.71 in 7.0 mi ENE 18.4 mph 25.3 mph N/A   Clear
5:53 PM 90.0 °F 30.0 °F 12% 29.71 in 7.0 mi ENE 19.6 mph 27.6 mph N/A   Mostly Cloudy
6:53 PM 88.0 °F 32.0 °F 14% 29.72 in 9.0 mi ENE 17.3 mph 28.8 mph N/A   Clear
7:53 PM 84.0 °F 35.1 °F 17% 29.74 in 10.0 mi ENE 20.7 mph 24.2 mph N/A   Clear
8:53 PM 80.1 °F 37.9 °F 22% 29.75 in 10.0 mi ENE 15.0 mph 24.2 mph N/A   Clear
9:53 PM 77.0 °F 39.9 °F 26% 29.80 in 10.0 mi NNE 12.7 mph - N/A   Clear
10:53 PM 64.9 °F 41.0 °F 42% 29.90 in 6.0 mi NNE 28.8 mph 41.4 mph N/A   Haze
11:04 PM 64.4 °F 41.0 °F 42% 30.03 in 8.0 mi NE 25.3 mph 38.0 mph N/A   Mostly Cloudy
11:53 PM 55.0 °F 37.9 °F 53% 29.99 in 6.0 mi NE 32.2 mph 40.3 mph N/A   Haze